FW4511 Weather Reports


Display with metric or nautical units.
time (UTC)temp
F
wind
direction
speed
MPH
gust
MPH
rain 1hr
in
rain 24hr
in
rain mn
in
humidity
%
barometer
mb
20260510204549 85 200 0.0 2.0 0.00 0.67 0.67 71 1015.7
20260510203040 85 215 1.0 5.0 0.00 0.67 0.67 69 1015.8
20260510201541 85 263 1.0 4.0 0.00 0.67 0.67 72 1015.6
20260510200039 83 188 0.0 3.0 0.00 0.67 0.67 75 1015.6
20260510194539 81 105 0.0 5.0 0.00 0.67 0.67 77 1015.6
20260510193037 80 169 1.0 5.0 0.00 0.67 0.67 83 1015.9
20260510191537 80 306 1.0 3.0 0.11 0.67 0.67 88 1016.0
20260510190038 79 323 0.0 2.0 0.14 0.67 0.67 90 1016.1
20260510184537 77 323 0.0 4.0 0.27 0.67 0.67 90 1016.2
20260510183036 75 126 0.0 9.0 0.67 0.67 0.67 89 1016.5
20260510181536 76 186 4.0 10.0 0.55 0.55 0.55 88 1016.5
20260510180043 77 102 1.0 4.0 0.53 0.53 0.53 86 1016.3
20260510174535 82 142 5.0 16.0 0.34 0.34 0.34 75 1016.9
20260510173036 92 183 2.0 6.0 0.00 0.00 0.00 54 1016.0
20260510171535 91 205 1.0 4.0 0.00 0.00 0.00 57 1016.1
20260510170029 90 243 1.0 3.0 0.00 0.00 0.00 58 1016.4
20260510164528 91 199 1.0 6.0 0.00 0.00 0.00 57 1016.7
20260510163026 91 192 1.0 3.0 0.00 0.00 0.00 60 1016.8
20260510161523 90 217 2.0 6.0 0.00 0.00 0.00 61 1017.1
20260510160022 89 177 1.0 7.0 0.00 0.00 0.00 61 1017.1
20260510154521 90 174 2.0 6.0 0.00 0.00 0.00 63 1016.9
20260510153032 89 175 0.0 7.0 0.00 0.00 0.00 64 1017.0
20260510151526 88 154 1.0 6.0 0.00 0.00 0.00 66 1017.0
20260510150013 87 294 2.0 9.0 0.00 0.00 0.00 69 1017.1
20260510144510 86 217 1.0 7.0 0.00 0.00 0.00 69 1016.9
20260510143007 85 221 3.0 7.0 0.00 0.00 0.00 71 1016.8
20260510141502 83 230 1.0 8.0 0.00 0.00 0.00 75 1016.8
20260510140100 82 223 1.0 3.0 0.00 0.00 0.00 75 1017.1
20260510134557 81 167 1.0 3.0 0.00 0.00 0.00 79 1016.9
20260510133053 81 171 1.0 4.0 0.00 0.00 0.00 80 1016.7
20260510131550 79 163 1.0 5.0 0.00 0.00 0.00 82 1016.6
20260510130050 78 182 1.0 3.0 0.00 0.00 0.00 86 1016.5
20260510124556 76 209 0.0 6.0 0.00 0.00 0.00 89 1016.5
20260510123038 75 149 0.0 6.0 0.00 0.00 0.00 90 1016.4
20260510121539 74 186 0.0 4.0 0.00 0.00 0.00 91 1016.3
20260510120033 74 197 1.0 4.0 0.00 0.00 0.00 91 1016.1
20260510114527 73 71 0.0 2.0 0.00 0.00 0.00 92 1015.8
20260510113025 73 171 1.0 4.0 0.00 0.00 0.00 92 1015.5
20260510111525 72 190 2.0 4.0 0.00 0.00 0.00 92 1015.2
20260510110039 72 123 1.0 3.0 0.00 0.00 0.00 91 1015.1
20260510104524 72 123 0.0 1.0 0.00 0.00 0.00 91 1014.7
20260510103022 72 123 0.0 0.0 0.00 0.00 0.00 91 1014.8
20260510101531 72 123 0.0 0.0 0.00 0.00 0.00 91 1014.6
20260510100024 72 123 0.0 1.0 0.00 0.00 0.00 91 1014.2
20260510094524 72 123 0.0 1.0 0.00 0.00 0.00 91 1014.1
20260510093020 73 123 0.0 2.0 0.00 0.00 0.00 91 1014.2
20260510091527 72 121 0.0 2.0 0.00 0.00 0.00 91 1014.0
20260510090025 73 121 0.0 1.0 0.00 0.00 0.00 91 1014.1
20260510084517 73 121 0.0 3.0 0.00 0.00 0.00 91 1013.8
20260510083017 73 117 0.0 2.0 0.00 0.00 0.00 91 1013.5
20260510081516 73 117 0.0 2.0 0.00 0.00 0.00 91 1013.5
20260510080014 73 117 0.0 2.0 0.00 0.00 0.00 91 1013.7
20260510074513 73 117 0.0 2.0 0.00 0.00 0.00 90 1013.8
20260510073013 73 115 0.0 3.0 0.00 0.00 0.00 90 1013.9
20260510071517 73 63 1.0 2.0 0.00 0.00 0.00 90 1014.2
20260510070010 72 63 0.0 1.0 0.00 0.00 0.00 90 1014.3
20260510064525 72 63 0.0 2.0 0.00 0.00 0.00 90 1014.3
20260510063008 72 63 0.0 0.0 0.00 0.00 0.00 90 1014.6
20260510061515 72 63 0.0 1.0 0.00 0.00 0.00 90 1014.6
20260510060008 72 63 0.0 1.0 0.00 0.00 0.00 90 1015.0
20260510054603 72 63 0.0 1.0 0.00 0.00 0.00 89 1014.9
20260510053102 73 63 0.0 1.0 0.00 0.00 0.00 89 1015.0
20260510051603 73 63 0.0 2.0 0.00 0.00 0.00 89 1015.2
20260510050100 73 63 0.0 1.0 0.00 0.00 0.00 88 1015.4
20260510044554 73 63 0.0 0.0 0.00 0.00 0.00 88 1015.7
20260510043050 74 63 0.0 0.0 0.00 0.00 0.00 88 1015.6
20260510041545 74 63 0.0 1.0 0.00 0.00 0.00 87 1015.5
20260510040041 74 63 0.0 2.0 0.00 0.00 0.00 87 1015.5
20260510034545 74 63 0.0 0.0 0.00 0.00 0.00 86 1015.7
20260510033045 74 63 0.0 0.0 0.00 0.00 0.00 85 1015.6
20260510031539 75 63 0.0 1.0 0.00 0.00 0.00 85 1015.5
20260510030037 75 63 0.0 2.0 0.00 0.00 0.00 84 1015.5
20260510024537 76 63 0.0 1.0 0.00 0.00 0.00 82 1015.5
20260510023037 76 63 0.0 2.0 0.00 0.00 0.00 81 1015.4
20260510021535 77 65 1.0 3.0 0.00 0.00 0.00 81 1015.2
20260510020036 77 77 2.0 6.0 0.00 0.00 0.00 80 1015.2
20260510014535 78 50 2.0 5.0 0.00 0.00 0.00 82 1015.0
20260510013034 78 48 2.0 5.0 0.00 0.00 0.00 81 1014.9
20260510011534 79 44 2.0 4.0 0.00 0.00 0.00 82 1014.6
20260510010033 79 77 2.0 6.0 0.00 0.00 0.00 83 1014.5
20260510004532 80 57 1.0 6.0 0.00 0.00 0.00 82 1014.3
20260510003032 80 34 2.0 4.0 0.00 0.00 0.00 80 1014.1
20260510001532 81 38 3.0 6.0 0.00 0.00 0.00 78 1013.7
20260510000036 82 23 3.0 9.0 0.00 0.00 0.00 75 1013.5
20260509234540 82 10 3.0 6.0 0.00 0.00 0.00 74 1013.4
20260509233030 83 48 2.0 6.0 0.00 0.00 0.00 72 1013.2
20260509231529 85 30 4.0 10.0 0.00 0.00 0.00 69 1013.2
20260509230031 86 335 2.0 12.0 0.00 0.00 0.00 59 1012.8
20260509224543 87 301 4.0 13.0 0.00 0.00 0.00 59 1012.5
20260509223029 88 345 5.0 11.0 0.00 0.00 0.00 59 1012.1
20260509221530 88 333 3.0 8.0 0.00 0.00 0.00 60 1012.1
20260509220027 88 323 6.0 11.0 0.00 0.00 0.00 59 1011.9
20260509214526 89 321 4.0 12.0 0.00 0.00 0.00 58 1011.8
20260509213025 89 340 1.0 9.0 0.00 0.00 0.00 58 1011.7
20260509211525 89 15 3.0 9.0 0.00 0.00 0.00 59 1011.6
20260509210024 89 355 3.0 9.0 0.00 0.00 0.00 59 1011.6